Printer-friendly version

IAU Minor Planet Center

Minor Planet Center

MPEC 2006-A59 : 2006 AW44

The following Minor Planet Electronic Circular may be linked-to from your own Web pages, but must not otherwise be redistributed electronically.


Read MPEC 2006-A58 Read MPEC 2006-A60


M.P.E.C. 2006-A59                                Issued 2006 Jan. 11, 12:56 UT

     The Minor Planet Electronic Circulars contain information on unusual
         minor planets and routine data on comets.  They are published
   on behalf of Commission 20 of the International Astronomical Union by the
          Minor Planet Center, Smithsonian Astrophysical Observatory,
                          Cambridge, MA 02138, U.S.A.

                  Supported in part by the Brinson Foundation
                  Supported in part by the TABASGO Foundation
             Prepared using the Tamkin Foundation Computer Network

                              MPC@CFA.HARVARD.EDU
          URL http://cfa-www.harvard.edu/iau/mpc.html  ISSN 1523-6714

                                   2006 AW44

Observations:
     K06A44W* C2006 01 10.27512 08 01 46.30 +23 09 24.2          19.5 V EA059G96
     K06A44W  C2006 01 10.28157 08 01 48.72 +23 09 51.1          19.6 V EA059G96
     K06A44W  C2006 01 10.28802 08 01 51.16 +23 10 18.2          19.5 V EA059G96
     K06A44W  C2006 01 10.29449 08 01 53.61 +23 10 45.3          19.7 V EA059G96
     K06A44W  C2006 01 10.32715 08 02 05.89 +23 13 01.5          19.8 V EA059G96
     K06A44W  C2006 01 10.32757 08 02 06.10 +23 13 03.5          19.6 V EA059G96
     K06A44W  C2006 01 10.32799 08 02 06.25 +23 13 05.1          19.5 V EA059G96
     K06A44W  C2006 01 10.32840 08 02 06.39 +23 13 06.7          19.8 V EA059G96
     K06A44W  C2006 01 10.37962 08 02 25.72 +23 16 37.8          19.4 V EA059G96
     K06A44W  C2006 01 10.38003 08 02 25.87 +23 16 39.0          19.3 V EA059G96
     K06A44W  C2006 01 10.38045 08 02 26.01 +23 16 41.3          19.6 V EA059G96
     K06A44W  C2006 01 10.38087 08 02 26.19 +23 16 43.2          19.8 V EA059G96
     K06A44W  C2006 01 10.46168 08 02 56.94 +23 22 10.8          19.6 V EA059G96
     K06A44W  C2006 01 10.46209 08 02 57.12 +23 22 12.7          19.7 V EA059G96
     K06A44W  C2006 01 10.46251 08 02 57.26 +23 22 14.5          19.7 V EA059G96
     K06A44W  C2006 01 10.46293 08 02 57.44 +23 22 16.1          19.3 V EA059G96
     K06A44W  C2006 01 11.10396 08 07 18.03 +24 05 44.9          19   R EA059461
     K06A44W  C2006 01 11.10442 08 07 18.23 +24 05 46.6                 EA059461
     K06A44W  C2006 01 11.10490 08 07 18.38 +24 05 48.6                 EA059461
     K06A44W  C2006 01 11.10679 08 07 19.19 +24 05 56.4                 EA059461
     K06A44W  C2006 01 11.10727 08 07 19.33 +24 05 58.3                 EA059461
     K06A44W  C2006 01 11.10774 08 07 19.49 +24 05 59.7                 EA059461
     K06A44W  C2006 01 11.10869 08 07 19.89 +24 06 03.5                 EA059461
     K06A44W  C2006 01 11.10917 08 07 20.09 +24 06 05.8                 EA059461
     K06A44W  C2006 01 11.27634 08 08 32.48 +24 17 47.2          19.7 R EA059854
     K06A44W  C2006 01 11.29569 08 08 39.80 +24 19 06.3          19.8 R EA059854
     K06A44W 5C2006 01 11.31273 08 08 46.78 +24 20 12.6          19.8 R EA059673
     K06A44W 5C2006 01 11.31794 08 08 48.71 +24 20 33.1                 EA059673
     K06A44W 5C2006 01 11.32350 08 08 50.86 +24 20 56.0                 EA059673
     K06A44W 5C2006 01 11.33009 08 08 53.39 +24 21 23.8                 EA059673
     K06A44W 1C2006 01 11.42526 08 09 32.52 +24 28 03.6                 EA059F65
     K06A44W 1C2006 01 11.42670 08 09 33.09 +24 28 09.1                 EA059F65
     K06A44W 1C2006 01 11.42752 08 09 33.37 +24 28 12.7                 EA059F65

Observer details:
461 Szeged University, Piszkesteto Stn. (Konkoly).  Observer K. Sarneczky.
    1.02-m Ritchey-Chretien + CCD.
673 Table Mountain Observatory, Wrightwood.  Observer J. Young.  0.6-m f/16
    Cassegrain + CCD.
F65 Haleakala-Faulkes Telescope North.  Observers A. Fitzsimmons, S. C. Lowry,
    C. Snodgrass.  2.0-m f/10.0 reflector + CCD.
G96 Mt. Lemmon Survey.  Observer R. Hill.  Measurers E. C. Beshore,
    E. J. Christensen, G. J. Garradd, A. D. Grauer, R. E. Hill, R. A. Kowalski,
    S. M. Larson, R. H. McNaught.  1.5-m reflector + CCD.
854 Sabino Canyon Observatory, Tucson.  Observer J. E. McGaha.  0.30-m f/10
    Schmidt-Cassegrain + CCD.

Orbital elements:
2006 AW44                                                Earth MOID = 0.1195 AU
Epoch 2006 Mar. 6.0 TT = JDT 2453800.5                  MPC
M  14.06080              (2000.0)            P               Q
n   0.25032698     Peri.    0.37984     -0.32814600     -0.93393062
a   2.4934325      Node   108.78073     +0.86628304     -0.35735904
e   0.5575070      Incl.    8.61095     +0.37666153     +0.00825271
P   3.94           H   23.5           G   0.15           U   7
Residuals in seconds of arc
060110 G96  0.1+  0.2+    060110 G96  0.2+  0.1+    060111 461  0.2-  0.3-
060110 G96  0.2-  0.0     060110 G96  0.0   0.2-    060111 461  0.0   0.1+
060110 G96  0.2-  0.0     060110 G96  0.3+  0.1+    060111 854  0.7+  0.4+
060110 G96  0.1-  0.0     060110 G96  0.0   0.2+    060111 854  0.2+  0.2+
060110 G96  0.5-  0.0     060110 G96  0.2+  0.1+    060111 673  0.5+  0.3+
060110 G96  0.2+  0.3+    060111 461  0.3-  0.1-    060111 673  0.2-  0.5-
060110 G96  0.1+  0.1+    060111 461  0.1-  0.2-    060111 673  0.3+  0.3-
060110 G96  0.1-  0.0     060111 461  0.6-  0.1-    060111 673  0.6+  0.7+
060110 G96  0.3+  0.1-    060111 461  0.4+  0.2+    060111 F65  0.4-  0.0
060110 G96  0.2+  0.6-    060111 461  0.3-  0.2+    060111 F65  0.0   0.3-
060110 G96  0.1-  0.0     060111 461  0.6-  0.3-    060111 F65  0.4-  0.1-

Ephemeris:
2006 AW44                a,e,i = 2.49, 0.56, 9                   q = 1.1033
Date    TT    R. A. (2000) Decl.     Delta      r     Elong.  Phase     V
2006 01 05    07 27.35   +16 52.3    0.122    1.104   171.8     7.3    19.7
2006 01 15    08 33.78   +28 13.8    0.125    1.106   167.1    11.4    19.9
2006 01 25    09 35.74   +35 35.5    0.146    1.121   157.8    19.4    20.5
2006 02 04    10 19.71   +38 40.6    0.179    1.148   152.9    23.0    21.2
2006 02 14    10 45.73   +39 08.3    0.222    1.187   151.2    23.6    21.7

Timothy B. Spahr             (C) Copyright 2006 MPC           M.P.E.C. 2006-A59

Read MPEC 2006-A58 Read MPEC 2006-A60


Our Web policy. Index to the CBAT/MPC/ICQ pages.


Valid HTML 4.01!